Weather History for Provo, UT

Change the Weather History Date:

Thursday, February 6, 2014

  Actual Average Record
Temperature  
Mean Temperature 26 °F -  
Max Temperature 35 °F 37 °F 51 °F (2000)
Min Temperature 17 °F 22 °F -26 °F (1989)
Degree Days  
Heating Degree Days 39    
Moisture  
Dew Point 19 °F    
Average Humidity 83    
Maximum Humidity 100    
Minimum Humidity 60    
Precipitation  
Precipitation 0.00 in - - ()
Sea Level Pressure  
Sea Level Pressure 29.92 in    
Wind  
Wind Speed 1 mph (SW)    
Max Wind Speed 6 mph    
Max Gust Speed -    
Visibility 8 miles    
Events Snow    
Averages and records for this station are not official NWS values.
T = Trace of Precipitation, MM = Missing Value Source: NWS Daily Summary

Daily Weather History Graph

Daily Weather History Graph

Search for Another Location

Airport:

Trip Planner

Search our weather history database for the weather conditions in past years. The results will help you decide how hot, cold, wet, or windy it might be!

Date:

Astronomy

Feb. 06, 2014 Rise Set
Actual Time 7:30 AM MST 5:51 PM MST
Civil Twilight 7:02 AM MST 6:20 PM MST
Nautical Twilight 6:30 AM MST 6:52 PM MST
Astronomical Twilight 5:58 AM MST 7:24 PM MST
Moon 11:26 AM MST (2/6) 12:50 AM MST (2/6)
Length of Visible Light 11h 17m
Length of Day
10h 21m
Waxing Crescent, 50% of the Moon is Illuminated
Feb 6
Waxing Crescent
Feb 6
First Quarter
Feb 14
Full
Feb 22
Last Quarter
Mar 1
New

Hourly Weather History & Observations

Time (MST) Temp. Windchill Dew Point Humidity Pressure Visibility Wind Dir Wind Speed Gust Speed Precip Events Conditions
12:15 AM 19.4 °F - 12.2 °F 74% 29.99 in 10.0 mi Calm Calm - N/A   Overcast
12:35 AM 19.4 °F - 14.0 °F 80% 29.99 in 10.0 mi Calm Calm - N/A   Overcast
12:55 AM 19.4 °F - 15.8 °F 86% 29.99 in 10.0 mi Calm Calm - N/A   Overcast
1:15 AM 19.4 °F - 14.0 °F 80% 29.99 in 10.0 mi Calm Calm - N/A   Overcast
1:35 AM 17.6 °F - 14.0 °F 86% 29.99 in 10.0 mi Calm Calm - N/A   Overcast
1:55 AM 17.6 °F - 15.8 °F 93% 29.98 in 10.0 mi Calm Calm - N/A   Overcast
2:15 AM 19.4 °F - 15.8 °F 86% 29.98 in 10.0 mi Calm Calm - N/A   Overcast
2:35 AM 17.6 °F - 14.0 °F 86% 29.98 in 10.0 mi Calm Calm - N/A   Overcast
2:55 AM 17.6 °F 12.3 °F 14.0 °F 86% 29.98 in 10.0 mi WNW 3.5 mph - N/A   Overcast
3:15 AM 17.6 °F - 12.2 °F 79% 29.97 in 10.0 mi Calm Calm - N/A   Overcast
3:35 AM 17.6 °F 12.3 °F 12.2 °F 79% 29.97 in 10.0 mi WSW 3.5 mph - N/A   Overcast
3:55 AM 17.6 °F - 12.2 °F 79% 29.97 in 10.0 mi Calm Calm - N/A   Overcast
4:15 AM 17.6 °F - 12.2 °F 79% 29.97 in 10.0 mi Calm Calm - N/A   Overcast
4:35 AM 17.6 °F - 12.2 °F 79% 29.96 in 10.0 mi Calm Calm - N/A   Overcast
4:55 AM 17.6 °F - 12.2 °F 79% 29.96 in 10.0 mi Calm Calm - N/A   Overcast
5:15 AM 17.6 °F - 12.2 °F 79% 29.96 in 10.0 mi Calm Calm - N/A   Overcast
5:35 AM 17.6 °F - 12.2 °F 79% 29.96 in 10.0 mi Calm Calm - N/A   Overcast
5:55 AM 17.6 °F 12.3 °F 12.2 °F 79% 29.96 in 10.0 mi WNW 3.5 mph - N/A   Overcast
6:15 AM 17.6 °F - 12.2 °F 79% 29.95 in 10.0 mi Calm Calm - N/A   Overcast
6:35 AM 17.6 °F - 15.8 °F 93% 29.96 in 10.0 mi Calm Calm - N/A   Overcast
6:51 AM 19.4 °F - 15.8 °F 86% 29.96 in 10.0 mi Calm Calm - N/A   Overcast
7:50 AM 19.4 °F - 17.6 °F 93% 29.96 in 15.0 mi Calm Calm - N/A   Overcast
8:50 AM 19.4 °F - 14.0 °F 80% 29.96 in 15.0 mi Calm Calm - N/A   Overcast
10:01 AM 21.2 °F 16.4 °F 15.8 °F 80% 29.96 in 15.0 mi WNW 3.5 mph - N/A   Mostly Cloudy
10:59 AM 24.8 °F - 15.8 °F 69% 29.96 in 15.0 mi Calm Calm - N/A   Mostly Cloudy
11:50 AM 28.4 °F - 17.6 °F 64% 29.94 in 10.0 mi Calm Calm - N/A   Mostly Cloudy
12:54 PM 26.6 °F - 19.4 °F 74% 29.91 in 10.0 mi Calm Calm - N/A   Mostly Cloudy
1:52 PM 30.2 °F - 19.4 °F 64% 29.88 in 10.0 mi Calm Calm - N/A   Mostly Cloudy
2:52 PM 32.0 °F - 19.4 °F 60% 29.87 in 10.0 mi Calm Calm - N/A   Mostly Cloudy
3:52 PM 35.6 °F 30.7 °F 24.8 °F 65% 29.87 in 10.0 mi East 5.8 mph - N/A   Mostly Cloudy
4:51 PM 33.8 °F - 21.2 °F 60% 29.87 in 10.0 mi Calm Calm - N/A   Overcast
5:54 PM 33.8 °F - 28.4 °F 81% 29.87 in 2.5 mi Calm Calm - N/A Snow Light Snow
6:45 PM 32.0 °F 27.5 °F 30.2 °F 93% 29.87 in 3.0 mi East 4.6 mph - N/A Snow Light Snow
7:54 PM 32.0 °F - 30.2 °F 93% 29.86 in 3.5 mi Calm Calm - N/A Snow Light Snow
8:52 PM 30.2 °F - 28.4 °F 93% 29.85 in 4.0 mi Calm Calm - N/A Snow Light Snow
9:15 PM 30.2 °F 26.7 °F 28.4 °F 93% 29.85 in 2.5 mi SSW 3.5 mph - N/A   Overcast
9:35 PM 30.2 °F 26.7 °F 28.4 °F 93% 29.85 in 2.5 mi SSW 3.5 mph - N/A   Mostly Cloudy
9:55 PM 30.2 °F 25.4 °F 28.4 °F 93% 29.85 in 2.5 mi SSW 4.6 mph - N/A   Overcast
10:15 PM 30.2 °F - 28.4 °F 93% 29.84 in 3.0 mi Calm Calm - N/A   Overcast
10:35 PM 30.2 °F - 28.4 °F 93% 29.84 in 3.0 mi Calm Calm - N/A   Overcast
10:55 PM 30.2 °F 25.4 °F 28.4 °F 93% 29.83 in 3.0 mi SSE 4.6 mph - N/A   Mostly Cloudy
11:15 PM 30.2 °F - 28.4 °F 93% 29.83 in 3.0 mi Calm Calm - N/A   Overcast
11:35 PM 28.4 °F - 28.4 °F 100% 29.83 in 3.0 mi Calm Calm - N/A   Overcast
11:55 PM 28.4 °F - 26.6 °F 93% 29.83 in 2.0 mi Calm Calm - N/A   Overcast